Weather History for Lincoln, NE

Change the Weather History Date:

Tuesday, August 21, 2012

  Actual Average Record
Temperature  
Mean Temperature 74 °F 75 °F  
Max Temperature 94 °F 86 °F 104 °F (1929)
Min Temperature 53 °F 63 °F 47 °F (1890)
Degree Days  
Heating Degree Days 0 0  
Month to date heating degree days 7 0  
Since 1 June heating degree days 18 17  
Since 1 July heating degree days 7 1  
Cooling Degree Days 9 10  
Month to date cooling degree days 188 236  
Year to date cooling degree days 1271 947  
Since 1 June cooling degree days 1080 868  
Growing Degree Days 23 (Base 50)    
Moisture  
Dew Point 49 °F    
Average Humidity 53    
Maximum Humidity 89    
Minimum Humidity 17    
Precipitation  
Precipitation 0.00 in 0.12 in 2.41 in (2002)
Month to date precipitation 0.12 2.32  
Year to date precipitation 13.66 20.41  
Snow  
Snow 0.00 in 0.00 in - ()
Month to date snowfall 0.0 0.0  
Since 1 July snowfall 0.0 0.0  
Snow Depth 0.00 in    
Sea Level Pressure  
Sea Level Pressure 29.98 in    
Wind  
Wind Speed 5 mph (SSE)    
Max Wind Speed 16 mph    
Max Gust Speed 22 mph    
Visibility 10 miles    
Events      
T = Trace of Precipitation, MM = Missing Value Source: NWS Daily Summary

Daily Weather History Graph

Daily Weather History Graph

Search for Another Location

Airport:

Trip Planner

Search our weather history database for the weather conditions in past years. The results will help you decide how hot, cold, wet, or windy it might be!

Date:

Astronomy

Aug. 21, 2012 Rise Set
Actual Time 6:43 AM CDT 8:15 PM CDT
Civil Twilight 6:14 AM CDT 8:44 PM CDT
Nautical Twilight 5:39 AM CDT 9:19 PM CDT
Astronomical Twilight 5:02 AM CDT 9:56 PM CDT
Moon 11:17 AM CDT (8/21) 10:14 PM CDT (8/21)
Length of Visible Light 14h 29m
Length of Day
13h 32m
Waxing Crescent, 19% of the Moon is Illuminated
Aug 21
Waxing Crescent
Aug 24
First Quarter
Aug 31
Full
Sep 8
Last Quarter
Sep 15
New

Hourly Weather History & Observations

Time (CDT) Temp. Dew Point Humidity Pressure Visibility Wind Dir Wind Speed Gust Speed Precip Events Conditions
12:54 AM 68.0 °F 52.0 °F 56% 29.97 in 10.0 mi Variable 3.5 mph - N/A   Clear
1:54 AM 64.0 °F 52.0 °F 65% 29.98 in 10.0 mi Calm Calm - N/A   Clear
2:54 AM 64.0 °F 53.1 °F 67% 29.99 in 10.0 mi Calm Calm - N/A   Clear
3:54 AM 57.9 °F 51.1 °F 78% 30.00 in 10.0 mi NNE 5.8 mph - N/A   Clear
4:54 AM 55.9 °F 51.1 °F 84% 30.00 in 10.0 mi NNE 4.6 mph - N/A   Clear
5:54 AM 54.0 °F 50.0 °F 86% 29.99 in 10.0 mi NE 4.6 mph - N/A   Partly Cloudy
6:54 AM 54.0 °F 50.0 °F 86% 30.01 in 9.0 mi North 4.6 mph - N/A   Partly Cloudy
7:54 AM 59.0 °F 53.1 °F 81% 30.01 in 9.0 mi NNE 3.5 mph - N/A   Clear
8:54 AM 66.0 °F 53.1 °F 63% 30.02 in 10.0 mi ESE 4.6 mph - N/A   Clear
9:54 AM 72.0 °F 52.0 °F 49% 30.02 in 10.0 mi SSE 4.6 mph - N/A   Clear
10:54 AM 77.0 °F 51.1 °F 40% 30.02 in 10.0 mi ESE 5.8 mph - N/A   Clear
11:54 AM 81.0 °F 48.0 °F 31% 30.02 in 10.0 mi Calm Calm - N/A   Clear
12:54 PM 87.1 °F 46.9 °F 25% 30.00 in 10.0 mi East 6.9 mph - N/A   Clear
1:54 PM 90.0 °F 46.9 °F 23% 29.98 in 10.0 mi Variable 4.6 mph - N/A   Clear
2:54 PM 93.0 °F 43.0 °F 18% 29.96 in 10.0 mi WSW 8.1 mph 18.4 mph N/A   Clear
3:54 PM 93.0 °F 43.0 °F 18% 29.95 in 10.0 mi Variable 4.6 mph - N/A   Clear
4:54 PM 93.9 °F 43.0 °F 17% 29.94 in 10.0 mi WSW 9.2 mph 20.7 mph N/A   Clear
5:54 PM 93.0 °F 46.9 °F 20% 29.94 in 10.0 mi SSW 8.1 mph - N/A   Clear
6:54 PM 91.9 °F 46.0 °F 21% 29.93 in 10.0 mi SW 9.2 mph - N/A   Clear
7:54 PM 87.1 °F 48.0 °F 26% 29.93 in 10.0 mi SSW 6.9 mph - N/A   Clear
8:54 PM 79.0 °F 50.0 °F 36% 29.94 in 10.0 mi South 5.8 mph - N/A   Clear
9:54 PM 73.9 °F 51.1 °F 45% 29.95 in 10.0 mi South 5.8 mph - N/A   Clear
10:54 PM 71.1 °F 51.1 °F 49% 29.95 in 10.0 mi South 6.9 mph - N/A   Clear
11:54 PM 68.0 °F 51.1 °F 55% 29.94 in 10.0 mi South 3.5 mph - N/A   Clear